Simultaneous Nadir Overpasses (SNOs) Predictions

Prediction of SNOs between NOAA-19 and METOP-C Satellite Orbit:

Table of predicted SNOs for the next 14.0 days since TLE Epoch: 5/31/2019
Index Date (NOAA-19) Time (NOAA-19) Lat,Lon (NOAA-19) SZA (NOAA-19 ) Date (METOP-C) Time (METOP-C) Lat,Lon (METOP-C) SZA (METOP-C ) Distance(km) Time Diff (sec)
1 06/09/2019 16:09:33 -79.27, 133.40 123.28 06/09/2019 16:10:36 -79.27, 133.50 123.26 2.14 63
2 06/09/2019 17:00:30 79.27, -59.30 56.72 06/09/2019 17:01:16 79.24, -59.35 56.70 3.11 46
3 06/09/2019 17:51:33 -79.25, 108.13 123.30 06/09/2019 17:51:58 -79.25, 108.06 123.29 1.64 25
4 06/09/2019 18:42:30 79.24, -84.58 56.70 06/09/2019 18:42:37 79.26, -84.53 56.73 2.44 7
5 06/09/2019 19:33:34 -79.25, 82.59 123.30 06/09/2019 19:33:20 -79.24, 82.62 123.31 1.47 14
6 06/09/2019 20:24:31 79.25,-110.12 56.70 06/09/2019 20:23:59 79.25,-109.97 56.70 3.12 32
7 06/09/2019 21:15:34 -79.22, 57.31 123.32 06/09/2019 21:14:42 -79.23, 57.17 123.34 2.92 52
8 06/09/2019 22:06:31 79.22,-135.40 56.68 06/09/2019 22:05:21 79.24,-135.41 56.68 1.56 70




NCC Satellite Simultaneous Nadir Overpasses (SNOs) Prediction Service
